Location: Taukkyan
(23.1052°N, 94.0030°E)
Time: 11:21:27
(UTC+00:00)

Cosmos 1726 - Pass Details

Date: 06 July 2020
Orbit: 481 x 500 km, 82.5° (Epoch: 14 August)

Event Time Altitude Azimuth Distance (km) Brightness Sun altitude
Rises 13:03:06 0° 339° (NNW) 2,569 6.6 -6.9°
Reaches altitude 10° 13:05:27 10° 326° (NW) 1,681 5.9 -7.3°
Maximum altitude 13:08:32 26° 269° (W) 997 4.5 -8.0°
Drops below altitude 10° 13:11:36 10° 211° (SSW) 1,665 4.8 -8.6°
Sets 13:13:55 0° 198° (SSW) 2,539 5.6 -9.0°
